CZ-6A DEB, 56654

Orbit data source: Space-Track

CZ-6A DEB, 56654 is space debris in SSO originally from a launch on Fri, 11 Nov 2022 UTC launched from the Taiyaun Space Center, China (TSC). Debris objects in space refer to the collection of defunct objects orbiting the Earth. Examples of debris include non-operational satellites, rocket bodies, and fragments generated from explosions, collisions, or faulty payload assembly.

Loading next visibility...
Identifier
56654, 2022-151AGE
Orbit
SSO
Country
Flag of CNCN / PRC
Related business
Manufacturer
SAST
Mission
Spacecraft
Bus & Motor
Unknown
Mass
Unknown
Launch date (UTC)
2022-11-11 (4 years ago)
Launch vehicle
Unknown
Launch site
Taiyaun Space Center, China (TSC)
Object type
Payload
Rocket body
Debris
Shape & HBR
Unknown shape, 0.1 m
Radar Cross Section
Medium (>0.1 m² and <1 m²)

Expand to show TLE details & history
Last TLE update: 2 days ago

TLE from 2 days ago
0 CZ-6A DEB
1 56654U 22151AGE 26262.62011533  .00000506  00000-0  37789-3 0  9994
2 56654  98.9099 227.5757 0136256 196.0040 163.6796 13.94912818173645
Epoch: 2026-09-19T14:52Z
TLE epoch observation values (Epoch: 2026-09-19T14:52:57.964Z)
Latitude
-0.00005°
Longitude
5.80815°
Altitude
1,009.785 km
Speed
7.299 km/s
True Right ascension
15h 10m 18s
True Declination
0° 00' 00"
Sunlit
Object was in daylight at epoch
Visualization orbit readout
Latitude
Unknown
Longitude
Unknown
Altitude
Unknown
Speed
Unknown
Apparent Right ascension
Unknown
Apparent Declination
Unknown
Sunlit
N/A
Visualization observer readout
Local Sidereal Time
13:50:00
Azimuth
Unknown
Elevation
Unknown
Doppler factor
Unknown
Orbital elements
Apogee altitude
1,007.953 km
Perigee altitude
809.379 km
Semi-major axis
7,286.803 km
Eccentricity
0.01363
Inclination
98.9099°
RAAN
227.5757°
Arg. of periapsis
196.004°
True anomaly
164.1113°
Mean anomaly
163.6796°
Eccentric anomaly
163.89615°
Mean motion
3.48929 °/min
Orbital period
103.17 mins
BSTAR
0.00037789
Loading maneuver chart data...
Computing Atmospheric mass density...
Loading historical data...
Loading historical data...
Loading historical data...
Loading historical data...
Loading historical data...
Loading historical data...
Loading historical data...

Documentation

Showing up to 5 results
|